TIANWANG 1B (TW-1B)
1 40927U 15051C   19096.49848823  .00011991  00000-0  19647-3 0  9996
2 40927  97.1488 142.3169 0006451 298.6338 167.1222 15.52596677198655
TIANWANG 1A (TW-1A)
1 40928U 15051D   19096.48752358  .00003721  00000-0  94248-4 0  9996
2 40928  97.1543 129.4022 0010377 350.1081 115.8338 15.40301353197900
LAPAN A2
1 40931U 15052B   19095.86189898  .00000734  00000-0  13157-4 0  9996
2 40931   5.9991 223.0838 0012941 191.8280 168.2209 14.76602431190332
LQSAT
1 40958U 15057A   19096.47526279  .00000003  00000-0  81045-5 0  9997
2 40958  97.9049 167.6259 0019634 114.0654 246.2611 14.73071555188025
CHUBUSAT 2
1 41338U 16012B   19095.50124151  .00000374  00000-0  22460-4 0  9994
2 41338  31.0026 256.2492 0013642  88.1138 272.1060 15.00116900171761
CHUBUSAT 3
1 41339U 16012C   19096.47743585  .00000334  00000-0  19228-4 0  9994
2 41339  31.0096 248.2362 0013362 104.4946 255.7203 15.00294867171905
OUFTI-1
1 41458U 16025C   19096.48682310  .00001630  00000-0  87631-4 0  9992
2 41458  98.1040 179.6251 0166073 242.7400 115.6822 15.05537302161564
E-STAR-2
1 41459U 16025D   19096.41981848  .00001483  00000-0  80590-4 0  9997
2 41459  98.1039 179.2601 0167313 244.1472 114.2412 15.05200855161527
AAUSAT 4
1 41460U 16025E   19096.48461579  .00002195  00000-0  11487-3 0  9999
2 41460  98.0994 180.3942 0157711 237.3146 121.2783 15.06968445161641
NUSAT 1
1 41557U 16033B   19096.52505199  .00001647  00000-0  64807-4 0  9993
2 41557  97.4181 184.4624 0013670 189.7329 170.3647 15.27004101158923
BEESAT 4
1 41619U 16040W   19096.45532197  .00001606  00000-0  71410-4 0  9993
2 41619  97.3752 160.0221 0009699 282.5286  77.4866 15.22905911142712
PRATHAM
1 41783U 16059A   19096.21252493  .00000075  00000-0  23968-4 0  9991
2 41783  98.0757 157.3858 0032271 254.3213 105.4428 14.62981529134800
ALSAT 1N
1 41789U 16059G   19096.40044500  .00000067  00000-0  21752-4 0  9996
2 41789  98.0782 159.4072 0026945 242.8748 116.9708 14.64226878134923
NAYIF 1
1 42017U 17008BX  19095.83404837  .00001782  00000-0  73642-4 0  9995
2 42017  97.4099 163.6726 0007879  75.1956 285.0155 15.25288994118660
LILACSAT-1
1 42725U 98067ME  19087.71781172  .15670676  12603-4  45746-3 0  9992
2 42725  51.6064 319.7683 0009359 299.6698  60.5570 16.44549673105565
MAX VALIER SAT
1 42778U 17036P   19096.15419597  .00001165  00000-0  54154-4 0  9997
2 42778  97.3627 155.4127 0014086 119.5381 240.7262 15.21857318 99053
